sat.trackr.live / text

‹ back to catalog

UMBRA-07

NORAD 58297 · 2023-174AT

PAYLOAD ACTIVE UNKNOWN

§ Identity

Operator
Country
US
Launch date
2023-11-11
Launch site
AFWTR
Launch vehicle
Mass (kg)
RCS (m²)

External: N2YO · Heavens-Above · Gunter

§ Orbital elements

Epoch: 2026-09-21T22:15:39.163968Z

Period
95.33 min
Inclination
97.3708°
Eccentricity
0.0004736
Mean motion
15.10600358 rev/d
Perigee alt
531.1 km
Apogee alt
537.6 km
Semi-major
6,912.5 km
B*
3.1387e-4
RAAN
317.0822°
Arg perigee
103.6484°
Mean anomaly
256.5273°
Rev number
15,801

§ Raw data

UMBRA-071 58297U 23174AT  26264.92753662  .00005125  00000+0  31387-3 0  99952 58297  97.3708 317.0822 0004736 103.6484 256.5273 15.10600358158010

JSON: /api/v1/satellites/58297 · /tle

For live sub-satellite position, see the globe view (requires WebGL).

§ Visibility from observer

Set your observer location to see the next 7 days of passes ≥ 10°. The values pass through the URL so the page stays shareable.

No JS? Fill the form by hand. The geolocation button needs JavaScript.